www.pogodaiklimat.ru

Погода и климат >> Архив погоды >> Россия >> Ставропольский край >> Невинномысск


ПОГОДА в Невинномысске

АРХИВ ПОГОДЫ в Невинномысске

Время (UTC), дата Ветер
(напр.,м/с)
 
Видим.   Явления Облачность Т
(С)
Тd
(С)
f
(%)
Тe
(С)
Тes
(С)
Комфортность P
(гПа)
Po
(гПа)
Тmin
(С)
Tmax
(С)
R
(мм)
R24
(мм)
S
(см)
00 18.08 штиль 0 20 км 10/6 600 м
[Sc Ac cast]
+19.2 +17.4 89 +21 +21 комфорт 1009.2 970.0
03 18.08 Ю 1 20 км 10/10 600 м
[Sc]
+19.6 +17.7 89 +23 +23 комфорт 1009.2 970.1 +19.0
06 18.08 штиль 0 20 км 10/5 600 м
[Sc Ac trans]
+23.7 +17.7 69 +28 +30 душно 1008.4 969.9
09 18.08 СЗ 3 20 км 10/0
[Ac und]
+25.1 +18.1 65 +29 +33 душно 1008.2 969.9
12 18.08 З 2 20 км 10/0
[Ac und]
+27.2 +17.8 56 +31 +34 душно 1008.0 969.9
15 18.08 З 1 20 км 10/0
[Ac As Ci fib]
+27.4 +17.1 53 +31 +32 душно 1008.5 970.4 +28.3
18 18.08 З 1 20 км ясно +24.2 +18.9 72 +29 +29 душно 1011.0 972.5
21 18.08 З 1 20 км в посл. час гроза ясно +21.9 +19.3 85 +27 +27 душно 1011.0 972.5
00 19.08 З 2 20 км {гроза} 10/0
[Ac und]
+21.0 +19.1 89 +26 +26 душно 1012.7 973.7
03 19.08 З 1 20 км 10/0
[Ac und]
+21.0 +18.6 86 +27 +27 душно 1014.0 974.9 +20.8
06 19.08 ЮЗ 2 20 км 10/0
[Ac trans Ci fib]
+24.2 +18.0 68 +28 +33 душно 1014.4 975.7
09 19.08 З 2 20 км ясно +28.3 +17.1 51 +32 +48 душно 1013.8 975.6
12 19.08 СЗ 1 20 км 10/5 1000 м
[Cu hum Ac trans Ci]
+31.6 +15.4 38 +34 +37 душно 1012.9 975.1
15 19.08 С 1 20 км 10/0
[Ac trans Ci fib]
+31.1 +13.4 34 +32 +33 жарко 1012.9 975.1 +32.0
18 19.08 В 1 20 км ясно +25.2 +14.1 50 +28 +28 жарко 1014.8 976.2
21 19.08 штиль 0 20 км 10/0
[Ac und]
+22.1 +14.6 62 +25 +25 комфорт 1015.3 976.2
00 20.08 ЮВ 1 20 км 8/0
[Ac und]
+20.2 +14.0 68 +24 +24 комфорт 1015.8 976.5
03 20.08 Ю 2 20 км 10/0
[Ci fib]
+19.1 +15.5 80 +21 +21 комфорт 1016.7 977.2 +18.4
06 20.08 Ю 1 20 км 3/0
[Ci fib]
+21.0 +15.3 70 +25 +34 комфорт 1016.6 977.4
09 20.08 ЮЗ 2 20 км 8/0
[Ci fib]
+26.4 +15.6 51 +29 +42 жарко 1015.9 977.4
12 20.08 З 3 20 км 10/6 1000 м
[Sc Ac und]
+33.8 +10.8 25 +33 +34 жарко 1013.5 975.9
15 20.08 СЗ 2 20 км 10/3 1000 м
[Sc Ac und]
+32.4 +10.7 26 +32 +32 жарко 1012.7 974.9 +35.1
18 20.08 Ю 1 20 км 4/0
[Ac und]
+25.9 +14.4 49 +28 +28 жарко 1014.4 975.9
21 20.08 Ю 1 20 км 8/0
[Ac und]
+23.5 +14.4 57 +26 +26 жарко 1014.9 976.0
00 21.08 штиль 0 20 км 10/0
[Ci]
+19.8 +13.6 67 +21 +21 комфорт 1014.2 974.9
03 21.08 З 1 20 км 8/0
[Ci]
+20.4 +15.4 73 +24 +24 комфорт 1014.6 975.3 +19.7
06 21.08 В 2 20 км 8/0
[Ci fib]
+29.2 +11.8 34 +30 +37 жарко 1013.4 975.3
09 21.08 В 4 20 км 10/0
[Ci fib]
+34.2 +5.3 17 +32 +40 жарко 1013.4 975.3
12 21.08 В 4
{10}
20 км 4/0
[Ci fib]
+35.8 +7.5 18 +34 +40 очень
жарко
1009.1 971.9
15 21.08 В 3
{10}
20 км 3/0
[Ci fib]
+34.3 +9.4 22 +33 +34 жарко 1009.1 971.9 +36.0
18 21.08 В 1 20 км ясно +27.4 +8.4 30 +27 +27 жарко 1010.2 971.9
21 21.08 В 3 20 км ясно +26.2 +5.0 26 +25 +25 комфорт 1010.2 971.8
00 22.08 СВ 2 20 км ясно +22.1 +7.1 38 +23 +23 комфорт 1011.0 972.0
03 22.08 В 1 20 км ясно +19.4 +8.5 49 +21 +22 комфорт 1011.5 972.2 +18.5
06 22.08 В 4-10
{10}
20 км 3/3 1000 м
[Cu med, cong]
+27.3 +8.3 30 +27 +31 жарко 1010.6 972.3
09 22.08 В 5-12
{13}
20 км 3/1 1000 м
[Cu hum Ci fib]
+33.8 +4.6 16 +31 +38 жарко 1009.5 972.0
12 22.08 В 5-12
{14}
20 км 4/1 1000 м
[Cu hum Ci fib]
+35.8 +3.4 13 +33 +37 жарко 1008.7 971.4
15 22.08 В 3
{13}
20 км 9/3 1000 м
[Sc Ci fib]
+34.2 +1.6 13 +31 +31 жарко 1008.7 971.4 +36.2
18 22.08 В 1 20 км 10/3 1000 м
[Sc Ac As]
+27.7 +4.0 22 +26 +26 жарко 1010.9 972.6
21 22.08 СВ 1 20 км ясно +21.8 +5.3 34 +22 +22 комфорт 1011.7 972.6
00 23.08 В 1 20 км ясно +17.7 +7.7 52 +19 +19 тепло 1012.2 972.6
03 23.08 Ю 2 20 км 10/0
[Ac trans Ci]
+15.3 +8.9 66 +15 +15 прохладно 1013.8 973.8 +15.1
06 23.08 СВ 2 20 км 10/0
[Ac trans Ci fib]
+27.4 +6.9 27 +27 +31 жарко 1012.1 973.7
09 23.08 СВ 3 20 км ясно +32.1 +5.8 19 +30 +43 жарко 1010.6 972.9
12 23.08 В 3
{10}
20 км 8/3 1000 м
[Cu hum Ci fib]
+35.3 +5.6 16 +33 +37 жарко 1009.2 971.9
15 23.08 В 2
{10}
20 км 10/0
[Ci fib]
+33.3 +7.6 20 +32 +32 жарко 1009.9 972.3 +36.1
18 23.08 штиль 0 20 км ясно +23.4 +11.8 48 +26 +26 жарко 1011.9 973.1
21 23.08 Ю 1 20 км ясно +21.0 +11.9 56 +24 +24 комфорт 1012.1 973.0
00 24.08 ЮЗ 1 20 км ясно +19.1 +12.2 64 +21 +21 комфорт 1012.5 973.1
03 24.08 ЮЗ 1 20 км 10/0
[Ci]
+19.5 +12.0 62 +22 +22 комфорт 1013.4 974.0 +18.9
06 24.08 ЮЗ 1 20 км 10/3
[Cu med, cong Ci sp]
+24.0 +12.3 48 +26 +31 жарко 1013.1 974.4
09 24.08 З 2 20 км 10/3 1000 м
[Cu med, cong Ac As Ci sp]
+29.4 +10.7 31 +30 +35 жарко 1011.3 973.3
12 24.08 З 2 20 км 10/0
[Ac As Ci sp]
+32.6 +11.3 27 +32 +36 жарко 1010.4 972.8
15 24.08 ЮЗ 1 20 км 10/0
[Ac cast]
+31.7 +10.5 27 +31 +32 жарко 1010.8 973.1 +32.9
18 24.08 Ю 3 20 км 10/0
[Ac und]
+26.3 +14.5 48 +29 +29 жарко 1013.1 974.7
21 24.08 Ю 2
{10}
20 км 10/0
[Ac und]
+23.3 +12.1 49 +26 +26 жарко 1013.5 974.7

 

Местоположение метеостанции Невинномысск (Ставропольский край, Россия): широта 44.63 долгота 41.97 высота над уровнем моря 343 м.

В архиве по умолчанию представлена погода в Невинномысске за последнюю неделю. Архивные данные за месяц целиком и за предыдущие месяцы, начиная с января 2011 года, Вы можете получить, выбрав интересующий диапазон дат из раскрывающегося списка и нажав кнопку "Ввод!".


*Определитесь, кто Вы:
робот инопланетянин человек

Внимание! Время в таблицах - всемирное. Для получения местного времени необходимо прибавить поправку, которая равна 3 ч.

Смотрите также архив погоды в соседних городах и на ближайших метеорологических станциях:

Погода в Черкесске (Карачаево-Черкессия, Россия) (46 км)
Погода в Отрадной (Краснодарский край, Россия) (47 км)
Погода в Ставрополе (Ставропольский край, Россия) (55 км)
Погода в Армавире (Краснодарский край, Россия) (78 км)
Погода в Александровском (Ставропольский край, Россия) (82 км)
Погода в Изобильном (Ставропольский край, Россия) (85 км)
Погода в Зеленчукской (Карачаево-Черкессия, Россия) (90 км)
Погода в Лабинске (Краснодарский край, Россия) (97 км)
Погода в Даховской (Адыгея, Россия) (97 км)
Погода в Минеральных Водах (Ставропольский край, Россия) (101 км)

Пояснения к столбцам:

Ветер - указаны скорость ветра в м/с - средняя за 10 мин, порывы в срок и между сроками (в фигурных скобках) и направление, откуда дует ветер: С - северный, СВ - северо-восточный, В - восточный, ЮВ - юго-восточный, Ю - южный, ЮЗ - юго-западный, З - западный, СЗ - северо-западный.
Видимость - горизонтальная дальность видимости в метрах или километрах. При видимости от 1 до 10 км при отсутствии осадков обычно наблюдается дымка, при ухудшении видимости до 1 км и менее - туман. В сухую погоду видимость может ухудшаться дымом, пылью или мглою.
Явления - указаны атмосферные явления, наблюдавшиеся в срок или в последний час перед сроком; фигурными скобками обозначены явления, наблюдавшиеся между сроками (за 1-3 часа до срока); квадратными скобками обозначены град или гололедные отложения с указанием их диаметра в мм.
Облачность - указаны через наклонную черту общая и нижняя облачность в баллах и высота нижней границы облаков в метрах; квадратными скобками обозначены формы облаков: Ci - перистые, Cs - перисто-слоистые, Cc - перисто-кучевые, Ac - высококучевые, As - высокослоистые, Sc - слоисто-кучевые, Ns - слоисто-дождевые, Cu - кучевые, Cb - кучево-дождевые. Подробнее классификацию облаков см. в Атласе облаков (PDF).
T - Температура воздуха - температура, измеренная на высоте 2 м над землей.
Td - Температура точки росы - температура, при понижении до которой содержащийся в воздухе водяной пар достигнет насыщения.
f - Относительная влажность воздуха - влажноcть воздуха, измеренная на высоте 2 м над землей.
Te - Эффективная температура - температура, которую ощущает одетый по сезону человек в тени. Характеристика душности погоды. При расчете учитывается влияние влажности воздуха и скорости ветра на теплоощущения человека.
Tes - Эффективная температура на солнце - температура, которую ощущает человек, с поправкой на солнечный нагрев. Характеристика знойности погоды. Зависит от высоты солнца над горизонтом, облачности и скорости ветра. Ночью, в пасмурную погоду, а также при ветре 12 м/с и более поправка равна нулю.
P - Атмосферное давление - приведенное к уровню моря атмосферное давление.
Po - Атмосферное давление - измеренное на уровне метеостанции атмосферное давление.
Tmin - Минимальная температура - минимум температуры воздуха на высоте 2 м над землей.
Tmax - Максимальная температура - максимум температуры воздуха на высоте 2 м над землей.
R - Количество осадков - Количество выпавших осадков за период времени, мм. При наведении курсора мыши на число - период времени, за который выпало указанное количество осадков.
R24 - Количество осадков - Количество выпавших осадков за 24 часа, мм.
S - Снежный покров - Высота снежного покрова, см. При наведении курсора мыши на число - состояние снежного покрова и степень покрытия местности в баллах.